| time (UTC) | temp C | wind direction | speed KPH | gust KPH | rain 1hr cm | rain 24hr cm | rain mn cm | humidity % | barometer mb |
| 20260503211032 | 15 | 128 | 6.4 | 25.7 | 0.00 | 0.00 | 0.00 | 71 | 1012.1 |
| 20260503210530 | 15 | 230 | 12.9 | 25.7 | 0.00 | 0.00 | 0.00 | 70 | 1012.1 |
| 20260503210041 | 16 | 196 | 9.7 | 24.1 | 0.00 | 0.00 | 0.00 | 67 | 1012.1 |
| 20260503205528 | 16 | 230 | 8.0 | 24.1 | 0.00 | 0.00 | 0.00 | 68 | 1012.0 |
| 20260503205032 | 16 | 240 | 8.0 | 22.5 | 0.00 | 0.00 | 0.00 | 68 | 1012.1 |
| 20260503204557 | 15 | 242 | 4.8 | 22.5 | 0.00 | 0.00 | 0.00 | 70 | 1012.0 |
| 20260503204028 | 15 | 265 | 8.0 | 22.5 | 0.00 | 0.00 | 0.00 | 74 | 1012.1 |
| 20260503203529 | 14 | 227 | 8.0 | 22.5 | 0.00 | 0.00 | 0.00 | 74 | 1012.1 |
| 20260503203041 | 14 | 247 | 9.7 | 22.5 | 0.00 | 0.00 | 0.00 | 73 | 1012.2 |
| 20260503202529 | 14 | 217 | 8.0 | 19.3 | 0.00 | 0.00 | 0.00 | 74 | 1012.3 |
| 20260503202029 | 14 | 221 | 9.7 | 19.3 | 0.00 | 0.00 | 0.00 | 71 | 1012.3 |
| 20260503201539 | 15 | 138 | 6.4 | 19.3 | 0.00 | 0.00 | 0.00 | 74 | 1012.2 |
| 20260503201027 | 14 | 236 | 6.4 | 19.3 | 0.00 | 0.00 | 0.00 | 73 | 1012.3 |
| 20260503200527 | 15 | 227 | 4.8 | 17.7 | 0.00 | 0.00 | 0.00 | 74 | 1012.4 |
| 20260503200045 | 14 | 266 | 6.4 | 17.7 | 0.00 | 0.00 | 0.00 | 74 | 1012.3 |
| 20260503195528 | 15 | 196 | 4.8 | 19.3 | 0.00 | 0.00 | 0.00 | 72 | 1012.3 |
| 20260503195027 | 14 | 281 | 4.8 | 19.3 | 0.00 | 0.00 | 0.00 | 76 | 1012.2 |
| 20260503194539 | 14 | 294 | 4.8 | 14.5 | 0.00 | 0.00 | 0.00 | 75 | 1012.3 |
| 20260503194027 | 14 | 203 | 6.4 | 16.1 | 0.00 | 0.00 | 0.00 | 73 | 1012.4 |
| 20260503193528 | 15 | 269 | 6.4 | 16.1 | 0.00 | 0.00 | 0.00 | 72 | 1012.4 |
| 20260503193042 | 15 | 327 | 4.8 | 19.3 | 0.00 | 0.00 | 0.00 | 74 | 1012.3 |
| 20260503192529 | 14 | 277 | 8.0 | 22.5 | 0.00 | 0.00 | 0.00 | 75 | 1012.4 |
| 20260503192027 | 15 | 284 | 6.4 | 22.5 | 0.00 | 0.00 | 0.00 | 72 | 1012.4 |
| 20260503191555 | 15 | 196 | 8.0 | 17.7 | 0.00 | 0.00 | 0.00 | 69 | 1012.4 |
| 20260503191027 | 15 | 213 | 4.8 | 17.7 | 0.00 | 0.00 | 0.00 | 72 | 1012.5 |
| 20260503190528 | 15 | 224 | 6.4 | 17.7 | 0.00 | 0.00 | 0.00 | 71 | 1012.4 |
| 20260503190039 | 15 | 244 | 4.8 | 22.5 | 0.00 | 0.00 | 0.00 | 69 | 1012.3 |
| 20260503185527 | 15 | 306 | 9.7 | 22.5 | 0.00 | 0.00 | 0.00 | 67 | 1012.3 |
| 20260503185028 | 15 | 294 | 4.8 | 19.3 | 0.00 | 0.00 | 0.00 | 69 | 1012.4 |
| 20260503184604 | 14 | 190 | 4.8 | 19.3 | 0.00 | 0.00 | 0.00 | 71 | 1012.5 |
| 20260503184030 | 15 | 192 | 4.8 | 14.5 | 0.00 | 0.00 | 0.00 | 70 | 1012.3 |
| 20260503183528 | 14 | 259 | 4.8 | 16.1 | 0.00 | 0.00 | 0.00 | 71 | 1012.3 |
| 20260503183047 | 14 | 213 | 4.8 | 16.1 | 0.00 | 0.00 | 0.00 | 73 | 1012.5 |
| 20260503182527 | 13 | 242 | 6.4 | 16.1 | 0.00 | 0.00 | 0.00 | 74 | 1012.4 |
| 20260503182030 | 13 | 286 | 6.4 | 16.1 | 0.00 | 0.00 | 0.00 | 76 | 1012.3 |
| 20260503181545 | 13 | 290 | 8.0 | 16.1 | 0.00 | 0.00 | 0.00 | 75 | 1012.3 |
| 20260503181027 | 14 | 282 | 4.8 | 16.1 | 0.00 | 0.00 | 0.00 | 76 | 1012.4 |
| 20260503180527 | 13 | 184 | 6.4 | 16.1 | 0.00 | 0.00 | 0.00 | 77 | 1012.3 |
| 20260503180044 | 13 | 186 | 4.8 | 14.5 | 0.00 | 0.00 | 0.00 | 76 | 1012.4 |
| 20260503175527 | 14 | 236 | 6.4 | 14.5 | 0.00 | 0.00 | 0.00 | 74 | 1012.3 |
| 20260503175028 | 15 | 207 | 3.2 | 12.9 | 0.00 | 0.00 | 0.00 | 75 | 1012.2 |
| 20260503174552 | 13 | 240 | 4.8 | 12.9 | 0.00 | 0.00 | 0.00 | 78 | 1012.3 |
| 20260503174028 | 13 | 280 | 6.4 | 12.9 | 0.00 | 0.00 | 0.00 | 79 | 1012.3 |
| 20260503173528 | 13 | 280 | 3.2 | 14.5 | 0.00 | 0.00 | 0.00 | 80 | 1012.2 |
| 20260503173039 | 13 | 265 | 3.2 | 14.5 | 0.00 | 0.00 | 0.00 | 80 | 1012.2 |
| 20260503172528 | 13 | 269 | 3.2 | 14.5 | 0.00 | 0.00 | 0.00 | 79 | 1012.3 |
| 20260503172028 | 13 | 265 | 4.8 | 16.1 | 0.00 | 0.00 | 0.00 | 82 | 1012.2 |
| 20260503171538 | 12 | 267 | 6.4 | 16.1 | 0.00 | 0.00 | 0.00 | 83 | 1012.3 |
| 20260503171031 | 12 | 231 | 4.8 | 11.3 | 0.00 | 0.00 | 0.00 | 85 | 1012.3 |
| 20260503170528 | 12 | 292 | 4.8 | 11.3 | 0.00 | 0.00 | 0.00 | 85 | 1012.2 |
| 20260503150530 | 10 | 216 | 0.0 | 6.4 | 0.00 | 0.00 | 0.00 | 91 | 1011.6 |
| 20260503131030 | 10 | 0 | 0.0 | 6.4 | 0.00 | 0.00 | 0.00 | 91 | 1010.4 |
| 20260503130530 | 10 | 0 | 0.0 | 6.4 | 0.00 | 0.00 | 0.00 | 91 | 1010.3 |
| 20260503110533 | 10 | 263 | 1.6 | 6.4 | 0.00 | 0.00 | 0.00 | 90 | 1010.4 |
| 20260503081553 | 10 | 289 | 3.2 | 11.3 | 0.00 | 0.00 | 0.00 | 88 | 1011.2 |
| 20260503081028 | 10 | 286 | 1.6 | 6.4 | 0.00 | 0.00 | 0.00 | 88 | 1011.2 |
| 20260503080528 | 10 | 287 | 1.6 | 6.4 | 0.00 | 0.00 | 0.00 | 88 | 1011.2 |
| 20260503072532 | 10 | 227 | 0.0 | 3.2 | 0.00 | 0.00 | 0.00 | 88 | 1011.3 |
| 20260503072028 | 10 | 0 | 0.0 | 3.2 | 0.00 | 0.00 | 0.00 | 89 | 1011.4 |
| 20260503071604 | 10 | 0 | 0.0 | 3.2 | 0.00 | 0.00 | 0.00 | 89 | 1011.3 |
| 20260503071027 | 10 | 260 | 0.0 | 3.2 | 0.00 | 0.00 | 0.00 | 89 | 1011.4 |
| 20260503070530 | 10 | 261 | 0.0 | 3.2 | 0.00 | 0.00 | 0.00 | 88 | 1011.4 |
| 20260503055030 | 10 | 286 | 3.2 | 9.7 | 0.00 | 0.00 | 0.00 | 88 | 1011.6 |
| 20260503054554 | 10 | 288 | 4.8 | 14.5 | 0.00 | 0.00 | 0.00 | 87 | 1011.8 |
| 20260503054029 | 10 | 277 | 4.8 | 14.5 | 0.00 | 0.00 | 0.00 | 87 | 1011.7 |
| 20260503053529 | 10 | 288 | 4.8 | 12.9 | 0.00 | 0.00 | 0.00 | 87 | 1011.7 |
| 20260503053040 | 10 | 281 | 3.2 | 11.3 | 0.00 | 0.00 | 0.00 | 87 | 1011.7 |
| 20260503052529 | 10 | 286 | 3.2 | 11.3 | 0.00 | 0.00 | 0.00 | 88 | 1011.8 |
| 20260503052030 | 10 | 285 | 3.2 | 12.9 | 0.00 | 0.00 | 0.00 | 87 | 1011.9 |
| 20260503051547 | 10 | 284 | 4.8 | 12.9 | 0.00 | 0.00 | 0.00 | 87 | 1011.8 |
| 20260503051028 | 10 | 248 | 3.2 | 12.9 | 0.00 | 0.00 | 0.00 | 87 | 1011.8 |
| 20260503050530 | 10 | 284 | 4.8 | 12.9 | 0.00 | 0.00 | 0.00 | 87 | 1011.7 |
| 20260503050038 | 10 | 284 | 4.8 | 12.9 | 0.00 | 0.00 | 0.00 | 87 | 1011.8 |
| 20260503045530 | 10 | 277 | 3.2 | 14.5 | 0.00 | 0.00 | 0.00 | 87 | 1011.7 |
| 20260503045030 | 10 | 271 | 4.8 | 14.5 | 0.00 | 0.00 | 0.00 | 87 | 1011.8 |
| 20260503044544 | 10 | 272 | 4.8 | 12.9 | 0.00 | 0.00 | 0.00 | 87 | 1011.7 |
| 20260503044029 | 10 | 281 | 3.2 | 12.9 | 0.00 | 0.00 | 0.00 | 87 | 1011.7 |
| 20260503043529 | 10 | 267 | 4.8 | 12.9 | 0.00 | 0.00 | 0.00 | 87 | 1011.8 |
| 20260503043046 | 10 | 269 | 3.2 | 16.1 | 0.00 | 0.00 | 0.00 | 87 | 1011.6 |
| 20260503042530 | 10 | 290 | 4.8 | 16.1 | 0.00 | 0.00 | 0.00 | 87 | 1011.7 |
| 20260503042030 | 10 | 279 | 6.4 | 17.7 | 0.00 | 0.00 | 0.00 | 87 | 1011.6 |
| 20260503041545 | 10 | 281 | 6.4 | 17.7 | 0.00 | 0.00 | 0.00 | 87 | 1011.5 |
| 20260503041030 | 11 | 277 | 6.4 | 14.5 | 0.00 | 0.00 | 0.00 | 87 | 1011.4 |
| 20260503040532 | 11 | 277 | 4.8 | 14.5 | 0.00 | 0.00 | 0.00 | 87 | 1011.4 |
| 20260503040038 | 11 | 285 | 4.8 | 14.5 | 0.00 | 0.00 | 0.00 | 87 | 1011.4 |
| 20260503035533 | 11 | 279 | 8.0 | 14.5 | 0.00 | 0.00 | 0.00 | 86 | 1011.4 |
| 20260503035030 | 11 | 273 | 4.8 | 16.1 | 0.00 | 0.00 | 0.00 | 86 | 1011.5 |
| 20260503034543 | 11 | 275 | 6.4 | 16.1 | 0.00 | 0.00 | 0.00 | 86 | 1011.4 |
| 20260503034029 | 11 | 252 | 6.4 | 16.1 | 0.00 | 0.00 | 0.00 | 86 | 1011.3 |
| 20260503033530 | 11 | 288 | 4.8 | 14.5 | 0.00 | 0.00 | 0.00 | 86 | 1011.3 |
| 20260503033054 | 11 | 288 | 4.8 | 14.5 | 0.00 | 0.00 | 0.00 | 86 | 1011.2 |
| 20260503032529 | 11 | 207 | 4.8 | 16.1 | 0.00 | 0.00 | 0.00 | 86 | 1011.2 |
| 20260503032029 | 11 | 282 | 6.4 | 16.1 | 0.00 | 0.00 | 0.00 | 86 | 1011.2 |
| 20260503031544 | 11 | 258 | 4.8 | 14.5 | 0.00 | 0.00 | 0.00 | 86 | 1011.1 |
| 20260503031030 | 11 | 217 | 6.4 | 14.5 | 0.00 | 0.00 | 0.00 | 86 | 1011.1 |
| 20260503030529 | 11 | 234 | 6.4 | 14.5 | 0.00 | 0.00 | 0.00 | 86 | 1011.0 |
| 20260503030044 | 11 | 217 | 6.4 | 16.1 | 0.00 | 0.00 | 0.00 | 85 | 1010.8 |
| 20260503025529 | 11 | 267 | 6.4 | 16.1 | 0.00 | 0.00 | 0.00 | 85 | 1010.7 |
| 20260503025029 | 11 | 207 | 4.8 | 19.3 | 0.00 | 0.00 | 0.00 | 85 | 1010.6 |
| 20260503024548 | 11 | 234 | 8.0 | 19.3 | 0.00 | 0.00 | 0.00 | 85 | 1010.6 |
| 20260503024031 | 11 | 231 | 6.4 | 19.3 | 0.00 | 0.00 | 0.00 | 85 | 1010.5 |
| 20260503023529 | 11 | 263 | 8.0 | 19.3 | 0.00 | 0.00 | 0.00 | 85 | 1010.5 |
| 20260503023044 | 11 | 271 | 6.4 | 14.5 | 0.00 | 0.00 | 0.00 | 85 | 1010.6 |
| 20260503022528 | 11 | 260 | 8.0 | 16.1 | 0.00 | 0.00 | 0.00 | 85 | 1010.5 |
| 20260503022030 | 11 | 239 | 6.4 | 16.1 | 0.00 | 0.00 | 0.00 | 84 | 1010.6 |
| 20260503021538 | 11 | 255 | 6.4 | 16.1 | 0.00 | 0.00 | 0.00 | 84 | 1010.7 |
| 20260503021030 | 11 | 271 | 6.4 | 19.3 | 0.00 | 0.00 | 0.00 | 83 | 1010.6 |
| 20260503020531 | 11 | 255 | 6.4 | 19.3 | 0.00 | 0.00 | 0.00 | 83 | 1010.7 |
| 20260503020048 | 11 | 249 | 6.4 | 16.1 | 0.00 | 0.00 | 0.00 | 83 | 1010.7 |
| 20260503015530 | 11 | 267 | 9.7 | 20.9 | 0.00 | 0.00 | 0.00 | 82 | 1010.8 |
| 20260503015029 | 11 | 238 | 9.7 | 24.1 | 0.00 | 0.00 | 0.00 | 82 | 1010.9 |
| 20260503014600 | 11 | 290 | 8.0 | 24.1 | 0.00 | 0.00 | 0.00 | 81 | 1010.8 |
| 20260503014030 | 11 | 292 | 9.7 | 22.5 | 0.00 | 0.00 | 0.00 | 81 | 1010.9 |
| 20260503013529 | 11 | 298 | 8.0 | 22.5 | 0.00 | 0.00 | 0.00 | 81 | 1010.8 |
| 20260503013045 | 11 | 286 | 9.7 | 20.9 | 0.00 | 0.00 | 0.00 | 80 | 1010.8 |
| 20260503012531 | 12 | 280 | 9.7 | 20.9 | 0.00 | 0.00 | 0.00 | 80 | 1010.8 |
| 20260503012033 | 12 | 275 | 8.0 | 19.3 | 0.00 | 0.00 | 0.00 | 81 | 1011.0 |
| 20260503011552 | 12 | 307 | 8.0 | 22.5 | 0.00 | 0.00 | 0.00 | 81 | 1010.8 |
| 20260503011032 | 12 | 286 | 8.0 | 22.5 | 0.00 | 0.00 | 0.00 | 80 | 1010.9 |
| 20260503010530 | 12 | 229 | 9.7 | 20.9 | 0.00 | 0.00 | 0.00 | 80 | 1011.0 |
| 20260503010039 | 12 | 269 | 9.7 | 22.5 | 0.00 | 0.00 | 0.00 | 79 | 1010.9 |
| 20260503005530 | 12 | 261 | 11.3 | 22.5 | 0.00 | 0.00 | 0.00 | 79 | 1010.8 |
| 20260503005029 | 12 | 245 | 8.0 | 24.1 | 0.00 | 0.00 | 0.00 | 78 | 1010.9 |
| 20260503004539 | 12 | 194 | 9.7 | 24.1 | 0.00 | 0.00 | 0.00 | 78 | 1010.9 |
| 20260503004030 | 13 | 281 | 8.0 | 17.7 | 0.00 | 0.00 | 0.00 | 78 | 1010.9 |
| 20260503003529 | 13 | 238 | 6.4 | 17.7 | 0.00 | 0.00 | 0.00 | 78 | 1011.0 |
| 20260503003044 | 12 | 260 | 9.7 | 20.9 | 0.00 | 0.00 | 0.00 | 78 | 1011.0 |
| 20260503002529 | 12 | 287 | 9.7 | 20.9 | 0.00 | 0.00 | 0.00 | 78 | 1011.0 |
| 20260503002029 | 12 | 266 | 11.3 | 20.9 | 0.00 | 0.00 | 0.00 | 78 | 1011.0 |
| 20260503001544 | 13 | 215 | 8.0 | 22.5 | 0.00 | 0.00 | 0.00 | 77 | 1011.1 |
| 20260503001029 | 13 | 256 | 9.7 | 22.5 | 0.00 | 0.00 | 0.00 | 77 | 1011.1 |
| 20260503000529 | 13 | 241 | 9.7 | 22.5 | 0.00 | 0.00 | 0.00 | 77 | 1011.1 |
| 20260503000045 | 13 | 289 | 11.3 | 22.5 | 0.00 | 0.00 | 0.00 | 77 | 1011.1 |
| 20260502235529 | 13 | 269 | 8.0 | 22.5 | 0.00 | 0.00 | 0.00 | 77 | 1011.1 |
| 20260502235029 | 13 | 263 | 8.0 | 22.5 | 0.00 | 0.00 | 0.00 | 77 | 1011.2 |
| 20260502234606 | 13 | 205 | 8.0 | 20.9 | 0.00 | 0.00 | 0.00 | 77 | 1011.2 |
| 20260502234029 | 13 | 246 | 8.0 | 20.9 | 0.00 | 0.00 | 0.00 | 76 | 1011.2 |
| 20260502233530 | 13 | 311 | 8.0 | 20.9 | 0.00 | 0.00 | 0.00 | 77 | 1011.3 |
| 20260502233037 | 13 | 286 | 8.0 | 20.9 | 0.00 | 0.00 | 0.00 | 76 | 1011.3 |
| 20260502232529 | 13 | 264 | 9.7 | 20.9 | 0.00 | 0.00 | 0.00 | 77 | 1011.3 |
| 20260502232034 | 13 | 265 | 9.7 | 20.9 | 0.00 | 0.00 | 0.00 | 77 | 1011.3 |
| 20260502231537 | 13 | 336 | 9.7 | 25.7 | 0.00 | 0.00 | 0.00 | 78 | 1011.4 |
| 20260502231029 | 13 | 292 | 9.7 | 25.7 | 0.00 | 0.00 | 0.00 | 78 | 1011.5 |
| 20260502230529 | 13 | 284 | 9.7 | 24.1 | 0.00 | 0.00 | 0.00 | 77 | 1011.6 |
| 20260502230045 | 13 | 236 | 9.7 | 24.1 | 0.00 | 0.00 | 0.00 | 77 | 1011.7 |
| 20260502225529 | 14 | 287 | 11.3 | 29.0 | 0.00 | 0.00 | 0.00 | 76 | 1011.6 |
| 20260502225029 | 14 | 270 | 9.7 | 29.0 | 0.00 | 0.00 | 0.00 | 77 | 1011.6 |
| 20260502224544 | 13 | 235 | 11.3 | 25.7 | 0.00 | 0.00 | 0.00 | 77 | 1011.7 |
| 20260502224031 | 13 | 296 | 9.7 | 27.4 | 0.00 | 0.00 | 0.00 | 77 | 1011.8 |
| 20260502223529 | 13 | 279 | 14.5 | 27.4 | 0.00 | 0.00 | 0.00 | 78 | 1011.9 |
| 20260502223057 | 13 | 290 | 16.1 | 27.4 | 0.00 | 0.00 | 0.00 | 78 | 1011.9 |
| 20260502222529 | 13 | 202 | 11.3 | 24.1 | 0.00 | 0.00 | 0.00 | 78 | 1011.8 |
| 20260502222029 | 13 | 263 | 9.7 | 24.1 | 0.00 | 0.00 | 0.00 | 79 | 1012.0 |
| 20260502221541 | 13 | 292 | 9.7 | 22.5 | 0.00 | 0.00 | 0.00 | 79 | 1012.1 |
| 20260502221029 | 14 | 277 | 8.0 | 30.6 | 0.00 | 0.00 | 0.00 | 79 | 1012.3 |
| 20260502220529 | 13 | 249 | 12.9 | 30.6 | 0.00 | 0.00 | 0.00 | 80 | 1012.3 |
| 20260502220040 | 13 | 288 | 11.3 | 24.1 | 0.00 | 0.00 | 0.00 | 79 | 1012.3 |
| 20260502215530 | 13 | 246 | 9.7 | 22.5 | 0.00 | 0.00 | 0.00 | 79 | 1012.2 |
| 20260502215029 | 13 | 276 | 9.7 | 22.5 | 0.00 | 0.00 | 0.00 | 78 | 1012.4 |
| 20260502214539 | 14 | 286 | 8.0 | 22.5 | 0.00 | 0.00 | 0.00 | 79 | 1012.3 |
| 20260502214032 | 13 | 281 | 8.0 | 24.1 | 0.00 | 0.00 | 0.00 | 79 | 1012.5 |
| 20260502213529 | 13 | 313 | 11.3 | 24.1 | 0.00 | 0.00 | 0.00 | 78 | 1012.5 |
| 20260502213044 | 13 | 265 | 12.9 | 25.7 | 0.00 | 0.00 | 0.00 | 79 | 1012.4 |
| 20260502212529 | 13 | 261 | 11.3 | 25.7 | 0.00 | 0.00 | 0.00 | 80 | 1012.5 |
| 20260502212031 | 13 | 287 | 12.9 | 25.7 | 0.00 | 0.00 | 0.00 | 79 | 1012.5 |
| 20260502211543 | 13 | 292 | 12.9 | 24.1 | 0.00 | 0.00 | 0.00 | 79 | 1012.6 |